Regional Weather Roundup
Issued by NWS

Home | Current Version | Previous Version | Graphics & Text | Print | Product List | Glossary On
Versions: 1 2 3 4 5 6 7 8 9 10 11 12 13 14 15 16 17 18 19 20 21 22 23 24 25 26 27 28 29 30 31 32 33 34 35 36 37 38 39 40 41 42 43 44 45 46 47 48 49 50
520
ASUS44 KLIX 252310
RWRLA
LOUISIANA WEATHER ROUNDUP
NATIONAL WEATHER SERVICE NEW ORLEANS LA
500 PM CST TUE NOV 25 2014

NOTE: "FAIR" INDICATES FEW OR NO CLOUDS BELOW 12,000 FEET WITH NO
      SIGNIFICANT WEATHER AND/OR OBSTRUCTIONS TO VISIBILITY.
      SKY/WX - SKY CONDITION AND SIGNIFICANT WEATHER.
      TMP - AIR TEMPERATURE.    DP   - DEWPOINT TEMPERATURE.
      RH  - RELATIVE HUMIDITY.  PRES - PRESSURE.
      HX  - HEAT INDEX.         WCI  - WIND CHILL INDEX.

*  THESE STATIONS ARE NOT NWS OR FAA STATIONS AND ARE NOT UNDER
   NWS QUALITY CONTROL.

LAZ040-048-061>063-065-066-069-260000-
SOUTHEAST LOUISIANA

CITY           SKY/WX    TMP DP  RH WIND       PRES   REMARKS
N.O. AUDUBON   NOT AVBL
N.O. INTL ARPT CLOUDY    54  33  45 N8        30.14F
N.O. LAKEFRONT CLOUDY    56  33  42 N12       30.13F
N.O. DOWNTOWN* CLOUDY    55  30  38 N5        30.14F
SLIDELL        CLOUDY    51  38  60 NE3       30.13F
BATON ROUGE    CLOUDY    51  29  42 N3        30.19R
BOOTHVILLE     CLOUDY    56  38  50 N17G24    30.14R
BELLE CHASSE   CLOUDY    55  31  39 N6        30.14S
BOGALUSA*        N/A     51  39  62 NW3       30.17S
NEW ROADS*     FAIR      51  32  48 NW7       30.21R
GONZALES*      FAIR      53  31  42 NW10      30.18R
HAMMOND*       CLOUDY    52  34  50 NW8       30.18R
HOUMA*         NOT AVBL
PORT FOURCHON* CLOUDY    55  34  44 N10G16    30.17F

$$

LAZ041-044-053-054-260000-
SOUTHWEST LOUISIANA

CITY           SKY/WX    TMP DP  RH WIND       PRES   REMARKS
LAKE CHARLES   CLEAR     56  34  43 NW6       30.22R
LAFAYETTE      MOCLDY    53  32  44 NW10      30.21R
PATTERSON      CLOUDY    54  34  47 NW9       30.20R
SALT POINT       N/A     58  35  42 NW7       30.18R
NEW IBERIA     CLOUDY    53  31  42 N8        30.21R
CHENAULT AIRPK CLEAR     55  34  44 NW6       30.23

$$

LAZ027-028-260000-
CENTRAL LOUISIANA

CITY           SKY/WX    TMP DP  RH WIND       PRES   REMARKS
FORT POLK      CLEAR     54  32  43 N2        30.20S
ALEXANDRIA INT CLEAR     54  30  40 N5        30.20R
ALEXANDRIA     CLEAR     50  40  68 CALM      30.21R

$$

LAZ001-002-260000-
NORTHWEST LOUISIANA

CITY           SKY/WX    TMP DP  RH WIND       PRES   REMARKS
SHREVEPORT     PTCLDY    57  27  31 SE3       30.17F
BARKSDALE AFB  CLEAR     57  23  27 S1        30.18F
DTN SHREVEPORT CLEAR     56  24  29 CALM      30.18F

$$

LAZ014-016-260000-
NORTHEAST LOUISIANA

CITY           SKY/WX    TMP DP  RH WIND       PRES   REMARKS
MONROE         CLEAR     51  31  46 CALM      30.21R
TALLULAH       CLOUDY    48  29  47 NW5       30.21R

$$




USA.gov is the U.S. government's official web portal to all federal, state and local government web resources and services.